TimeEDT,TemperatureF,Dew PointF,Humidity,Sea Level PressureIn,VisibilityMPH,Wind Direction,Wind SpeedMPH,Gust SpeedMPH,PrecipitationIn,Events,Conditions,WindDirDegrees,DateUTC
12:53 AM,69.1,60.1,73,29.90,10.0,WNW,6.9,-,0.00,Rain,Light Rain,300,2013-10-20 04:53:00
1:53 AM,66.9,57.9,73,29.91,10.0,NW,10.4,-,0.00,,Mostly Cloudy,310,2013-10-20 05:53:00
2:53 AM,66.0,57.9,75,29.91,10.0,NW,9.2,-,N/A,,Overcast,320,2013-10-20 06:53:00
3:53 AM,64.9,57.9,78,29.90,10.0,NNW,11.5,-,N/A,,Overcast,330,2013-10-20 07:53:00
4:53 AM,63.0,60.1,90,29.91,10.0,NNW,9.2,-,0.00,,Overcast,330,2013-10-20 08:53:00
5:53 AM,63.0,59.0,87,29.93,10.0,North,5.8,-,0.00,,Overcast,350,2013-10-20 09:53:00
6:53 AM,63.0,59.0,87,29.95,10.0,North,5.8,-,0.00,Rain,Light Rain,360,2013-10-20 10:53:00
7:53 AM,62.1,57.9,86,29.99,10.0,North,8.1,-,0.00,Rain,Light Rain,360,2013-10-20 11:53:00
8:53 AM,62.1,55.9,80,30.02,10.0,North,10.4,-,0.00,,Overcast,10,2013-10-20 12:53:00
9:53 AM,62.1,51.1,67,30.04,10.0,NNE,18.4,24.2,N/A,,Overcast,30,2013-10-20 13:53:00
10:53 AM,64.0,48.0,56,30.05,10.0,NE,15.0,-,N/A,,Scattered Clouds,40,2013-10-20 14:53:00
11:53 AM,64.9,50.0,58,30.06,10.0,North,9.2,-,N/A,,Clear,10,2013-10-20 15:53:00
12:53 PM,66.0,48.0,52,30.06,10.0,NNE,11.5,-,N/A,,Clear,30,2013-10-20 16:53:00
1:53 PM,69.1,48.0,47,30.04,10.0,NE,8.1,-,N/A,,Clear,40,2013-10-20 17:53:00
2:53 PM,70.0,48.9,47,30.03,10.0,NE,5.8,-,N/A,,Clear,40,2013-10-20 18:53:00
3:53 PM,71.1,50.0,47,30.02,10.0,NE,8.1,-,N/A,,Clear,40,2013-10-20 19:53:00
4:53 PM,70.0,50.0,49,30.03,10.0,North,8.1,-,N/A,,Clear,10,2013-10-20 20:53:00
5:53 PM,66.9,51.1,57,30.04,10.0,NNE,5.8,-,N/A,,Clear,30,2013-10-20 21:53:00
6:53 PM,61.0,54.0,78,30.05,10.0,NNE,3.5,-,N/A,,Clear,20,2013-10-20 22:53:00
7:53 PM,57.9,54.0,87,30.06,10.0,Calm,Calm,-,N/A,,Clear,0,2013-10-20 23:53:00
8:53 PM,57.0,54.0,89,30.08,10.0,Calm,Calm,-,N/A,,Clear,0,2013-10-21 00:53:00
9:53 PM,55.9,53.1,90,30.09,10.0,NNE,4.6,-,N/A,,Clear,30,2013-10-21 01:53:00
10:53 PM,55.9,53.1,90,30.09,10.0,NNE,8.1,-,N/A,,Clear,20,2013-10-21 02:53:00
11:53 PM,55.0,52.0,89,30.09,10.0,NNE,8.1,-,N/A,,Clear,30,2013-10-21 03:53:00